TimeCDT,TemperatureF,Dew PointF,Humidity,Sea Level PressureIn,VisibilityMPH,Wind Direction,Wind SpeedMPH,Gust SpeedMPH,PrecipitationIn,Events,Conditions,WindDirDegrees,DateUTC
12:53 AM,46.9,28.0,48,30.10,10.0,North,11.5,-,N/A,,Clear,350,2013-03-25 05:53:00
1:53 AM,45.0,28.9,53,30.12,10.0,North,9.2,-,N/A,,Clear,350,2013-03-25 06:53:00
2:53 AM,44.1,28.0,53,30.12,10.0,North,15.0,-,N/A,,Clear,350,2013-03-25 07:53:00
3:53 AM,43.0,28.0,56,30.12,10.0,North,11.5,-,N/A,,Clear,350,2013-03-25 08:53:00
4:53 AM,42.1,28.0,58,30.13,10.0,NNW,9.2,-,N/A,,Clear,340,2013-03-25 09:53:00
5:53 AM,41.0,28.0,60,30.14,10.0,NNW,10.4,-,N/A,,Clear,340,2013-03-25 10:53:00
6:53 AM,39.0,27.0,62,30.17,10.0,North,11.5,-,N/A,,Clear,350,2013-03-25 11:53:00
7:53 AM,41.0,28.0,60,30.20,10.0,North,13.8,-,N/A,,Clear,350,2013-03-25 12:53:00
8:53 AM,44.1,28.0,53,30.24,10.0,North,16.1,-,N/A,,Clear,360,2013-03-25 13:53:00
9:53 AM,46.9,25.0,42,30.27,10.0,North,15.0,-,N/A,,Clear,10,2013-03-25 14:53:00
10:53 AM,51.1,21.9,32,30.27,10.0,North,18.4,23.0,N/A,,Clear,360,2013-03-25 15:53:00
11:53 AM,54.0,19.0,25,30.26,10.0,North,23.0,28.8,N/A,,Clear,10,2013-03-25 16:53:00
12:53 PM,57.0,21.0,25,30.25,10.0,North,13.8,23.0,N/A,,Clear,10,2013-03-25 17:53:00
1:53 PM,59.0,21.9,24,30.22,10.0,NNW,16.1,23.0,N/A,,Clear,340,2013-03-25 18:53:00
2:53 PM,59.0,21.0,23,30.19,10.0,North,16.1,26.5,0.00,,Clear,350,2013-03-25 19:53:00
3:53 PM,60.1,21.0,22,30.18,10.0,NNW,19.6,25.3,N/A,,Clear,330,2013-03-25 20:53:00
4:53 PM,61.0,21.9,22,30.17,10.0,NNW,19.6,25.3,N/A,,Clear,330,2013-03-25 21:53:00
5:53 PM,61.0,19.9,21,30.18,10.0,North,15.0,24.2,N/A,,Clear,350,2013-03-25 22:53:00
6:53 PM,57.9,23.0,26,30.19,10.0,NW,10.4,-,N/A,,Clear,320,2013-03-25 23:53:00
7:53 PM,53.1,28.0,38,30.21,10.0,NW,4.6,-,N/A,,Clear,310,2013-03-26 00:53:00
8:53 PM,51.1,26.1,38,30.24,10.0,North,5.8,-,N/A,,Clear,10,2013-03-26 01:53:00
9:53 PM,48.9,30.9,50,30.27,10.0,WNW,4.6,-,N/A,,Clear,300,2013-03-26 02:53:00
10:53 PM,48.0,28.9,48,30.30,10.0,NNW,5.8,-,N/A,,Clear,340,2013-03-26 03:53:00
11:53 PM,48.0,27.0,44,30.31,10.0,NNW,9.2,-,N/A,,Clear,340,2013-03-26 04:53:00